When you browse on this site, cookies collect data to enhance your experience and personalize the content and advertising you see.
Visit our Privacy Policy to learn more. By continuing to use the site, you agree to this use of cookies and data.
  • In Lithuania
  • List of Countries
  • For 7 days
  • Water Temperature
  • Satellite Maps
  • Weather Map
  • Weather Widgets
  • user-avatar
    Login

    Hourly Weather Zhidachov

    Today, 19 January, Saturday

    Time Temperature Precipitation Wind Pressure Humidity
    00:00 -4°C° 0 mm 3 mps 741 mmHg 93%
    01:00 -5°C° 0 mm 3 mps 741 mmHg 94%
    02:00 -5°C° 0 mm 2 mps 741 mmHg 95%
    03:00 -5°C° 0 mm 2 mps 742 mmHg 95%
    04:00 -6°C° 0 mm 2 mps 742 mmHg 95%
    05:00 -6°C° 0 mm 2 mps 742 mmHg 95%
    06:00 -6°C° 0 mm 2 mps 743 mmHg 95%
    07:00 -6°C° 0 mm 2 mps 743 mmHg 95%
    08:00 -6°C° 0 mm 2 mps 743 mmHg 95%
    09:00 -4°C° 0 mm 1 mps 743 mmHg 92%
    10:00 -3°C° 0 mm 1 mps 743 mmHg 90%
    11:00 -2°C° 0 mm 1 mps 744 mmHg 87%
    12:00 -1°C° 0 mm 1 mps 744 mmHg 85%
    13:00 -1°C° 0 mm 1 mps 743 mmHg 82%
    14:00 -1°C° 0 mm 0 mps 743 mmHg 79%
    15:00 -1°C° 0 mm 1 mps 743 mmHg 83%
    16:00 -2°C° 0 mm 1 mps 743 mmHg 86%
    17:00 -3°C° 0 mm 1 mps 743 mmHg 90%
    18:00 -5°C° 0 mm 2 mps 743 mmHg 91%
    19:00 -6°C° 0 mm 2 mps 743 mmHg 92%
    20:00 -6°C° 0 mm 2 mps 743 mmHg 93%
    21:00 -6°C° 0 mm 2 mps 743 mmHg 93%
    22:00 -6°C° 0 mm 2 mps 743 mmHg 92%
    23:00 -6°C° 0 mm 2 mps 743 mmHg 92%

    Tomorrow, 20 January, Sunday

    Time Temperature Precipitation Wind Pressure Humidity
    00:00 -7°C° 0 mm 3 mps 742 mmHg 93%
    01:00 -7°C° 0 mm 3 mps 742 mmHg 93%
    02:00 -7°C° 0 mm 3 mps 742 mmHg 94%
    03:00 -7°C° 0 mm 3 mps 741 mmHg 94%
    04:00 -7°C° 0 mm 3 mps 741 mmHg 94%
    05:00 -7°C° 0 mm 3 mps 740 mmHg 93%
    06:00 -6°C° 0 mm 2 mps 740 mmHg 93%
    07:00 -6°C° 0 mm 2 mps 740 mmHg 94%
    08:00 -6°C° 0 mm 2 mps 740 mmHg 94%
    09:00 -5°C° 0 mm 2 mps 740 mmHg 93%
    10:00 -5°C° 0 mm 2 mps 740 mmHg 92%
    11:00 -4°C° 0 mm 2 mps 740 mmHg 91%
    12:00 -4°C° 0 mm 2 mps 739 mmHg 90%
    13:00 -1°C° 0 mm 1 mps 739 mmHg 89%
    14:00 -1°C° 0 mm 1 mps 739 mmHg 88%
    15:00 -1°C° 0 mm 1 mps 739 mmHg 89%
    16:00 -1°C° 0 mm 1 mps 739 mmHg 91%
    17:00 -2°C° 0 mm 1 mps 739 mmHg 92%
    18:00 -2°C° 0 mm 1 mps 739 mmHg 92%
    19:00 -2°C° 0 mm 1 mps 739 mmHg 92%
    20:00 -2°C° 0 mm 1 mps 739 mmHg 92%
    21:00 -2°C° 0 mm 1 mps 740 mmHg 92%
    22:00 -2°C° 0 mm 1 mps 740 mmHg 93%
    23:00 -4°C° 0 mm 2 mps 740 mmHg 93%

    Day after tomorrow, 21 January, Monday

    Time Temperature Precipitation Wind Pressure Humidity
    00:00 -5°C° 0 mm 2 mps 740 mmHg 93%
    01:00 -5°C° 0 mm 2 mps 741 mmHg 93%
    02:00 -5°C° 0 mm 2 mps 741 mmHg 93%
    03:00 -6°C° 0 mm 2 mps 741 mmHg 94%
    04:00 -6°C° 0 mm 2 mps 741 mmHg 94%
    05:00 -7°C° 0 mm 2 mps 741 mmHg 94%
    06:00 -7°C° 0 mm 2 mps 742 mmHg 94%
    07:00 -8°C° 0 mm 2 mps 742 mmHg 93%
    08:00 -8°C° 0 mm 2 mps 742 mmHg 93%
    09:00 -7°C° 0 mm 2 mps 743 mmHg 90%
    10:00 -6°C° 0 mm 2 mps 743 mmHg 88%
    11:00 -5°C° 0 mm 2 mps 744 mmHg 86%
    12:00 -5°C° 0 mm 2 mps 744 mmHg 85%
    13:00 -4°C° 0 mm 2 mps 744 mmHg 85%
    14:00 -1°C° 0 mm 1 mps 744 mmHg 85%
    15:00 -2°C° 0 mm 1 mps 744 mmHg 86%
    16:00 -2°C° 0 mm 1 mps 744 mmHg 88%
    17:00 -3°C° 0 mm 0 mps 744 mmHg 89%
    18:00 -2°C° 0 mm 1 mps 744 mmHg 89%
    19:00 -2°C° 0 mm 1 mps 744 mmHg 88%
    20:00 -2°C° 0 mm 1 mps 744 mmHg 88%
    21:00 -3°C° 0 mm 1 mps 744 mmHg 88%
    22:00 -3°C° 0 mm 1 mps 744 mmHg 89%
    23:00 -5°C° 0 mm 2 mps 743 mmHg 90%

    22 January, Tuesday

    Time Temperature Precipitation Wind Pressure Humidity
    00:00 -6°C° 0 mm 2 mps 743 mmHg 91%
    01:00 -7°C° 0 mm 2 mps 743 mmHg 93%
    02:00 -8°C° 0 mm 2 mps 742 mmHg 94%
    03:00 -8°C° 0 mm 2 mps 742 mmHg 94%
    04:00 -8°C° 0 mm 2 mps 741 mmHg 94%
    05:00 -8°C° 0 mm 2 mps 741 mmHg 94%
    06:00 -8°C° 0 mm 2 mps 741 mmHg 94%
    07:00 -8°C° 0 mm 2 mps 740 mmHg 93%
    08:00 -8°C° 0 mm 2 mps 740 mmHg 93%
    09:00 -8°C° 0 mm 2 mps 740 mmHg 91%
    10:00 -7°C° 0 mm 2 mps 740 mmHg 89%
    11:00 -6°C° 0 mm 2 mps 739 mmHg 87%
    12:00 -5°C° 0 mm 2 mps 739 mmHg 87%
    13:00 -4°C° 0 mm 2 mps 738 mmHg 87%
    14:00 -4°C° 0 mm 2 mps 738 mmHg 86%
    15:00 -4°C° 0 mm 2 mps 737 mmHg 89%
    16:00 -5°C° 0 mm 2 mps 737 mmHg 92%
    17:00 -6°C° 0 mm 2 mps 737 mmHg 95%
    18:00 -7°C° 0 mm 3 mps 737 mmHg 96%
    19:00 -8°C° 0 mm 3 mps 736 mmHg 96%
    20:00 -8°C° 0 mm 3 mps 736 mmHg 96%
    21:00 -8°C° 0 mm 3 mps 736 mmHg 96%
    22:00 -7°C° 0 mm 3 mps 736 mmHg 95%
    23:00 -7°C° 0 mm 3 mps 736 mmHg 94%

    23 January, Wednesday

    Time Temperature Precipitation Wind Pressure Humidity
    00:00 -7°C° 0 mm 3 mps 735 mmHg 94%
    01:00 -7°C° 0 mm 3 mps 735 mmHg 94%
    02:00 -7°C° 0 mm 3 mps 734 mmHg 94%
    03:00 -7°C° 0 mm 3 mps 734 mmHg 94%
    04:00 -7°C° 0 mm 3 mps 734 mmHg 94%
    05:00 -7°C° 0 mm 3 mps 733 mmHg 94%
    06:00 -6°C° 0 mm 3 mps 733 mmHg 95%
    07:00 -6°C° 0 mm 3 mps 733 mmHg 95%
    08:00 -6°C° 0 mm 3 mps 733 mmHg 95%
    09:00 -5°C° 0 mm 3 mps 733 mmHg 94%
    10:00 -5°C° 0 mm 4 mps 733 mmHg 93%
    11:00 -4°C° 0 mm 4 mps 733 mmHg 92%
    12:00 -4°C° 0 mm 4 mps 733 mmHg 92%
    13:00 -3°C° 0 mm 4 mps 732 mmHg 92%
    14:00 -3°C° 0 mm 4 mps 732 mmHg 92%
    15:00 -3°C° 0 mm 4 mps 732 mmHg 92%
    16:00 -3°C° 0 mm 4 mps 732 mmHg 93%
    17:00 -3°C° 0 mm 4 mps 732 mmHg 94%
    18:00 -3°C° 0 mm 4 mps 732 mmHg 94%
    19:00 -4°C° 0 mm 5 mps 733 mmHg 94%
    20:00 -4°C° 0 mm 5 mps 733 mmHg 94%
    21:00 -4°C° 0 mm 5 mps 733 mmHg 94%
    22:00 -5°C° 0 mm 5 mps 733 mmHg 94%
    23:00 -4°C° 0 mm 4 mps 733 mmHg 94%

    24 January, Thursday

    Time Temperature Precipitation Wind Pressure Humidity
    00:00 -4°C° 0 mm 4 mps 733 mmHg 94%
    01:00 -3°C° 0 mm 4 mps 733 mmHg 94%
    02:00 -3°C° 0 mm 4 mps 732 mmHg 94%
    03:00 -3°C° 0 mm 4 mps 732 mmHg 95%
    04:00 -2°C° 0 mm 3 mps 732 mmHg 95%
    05:00 -2°C° 0 mm 3 mps 732 mmHg 95%
    06:00 -2°C° 0.1 mm 3 mps 732 mmHg 95%
    07:00 -3°C° 0.1 mm 4 mps 732 mmHg 95%
    08:00 -2°C° 0.1 mm 4 mps 732 mmHg 95%
    09:00 -2°C° 0.1 mm 4 mps 732 mmHg 96%
    10:00 -2°C° 0.1 mm 4 mps 732 mmHg 96%
    11:00 -1°C° 0.1 mm 4 mps 733 mmHg 96%
    12:00 -1°C° 0 mm 4 mps 732 mmHg 96%
    13:00 -1°C° 0 mm 4 mps 732 mmHg 96%
    14:00 -1°C° 0 mm 4 mps 732 mmHg 97%
    15:00 -1°C° 0 mm 4 mps 732 mmHg 96%
    16:00 0°C° 0 mm 3 mps 732 mmHg 96%
    17:00 -1°C° 0 mm 3 mps 732 mmHg 96%
    18:00 -1°C° 0.1 mm 3 mps 732 mmHg 96%
    19:00 -1°C° 0.1 mm 3 mps 732 mmHg 96%
    20:00 -2°C° 0.1 mm 3 mps 733 mmHg 96%
    21:00 -2°C° 0.1 mm 3 mps 733 mmHg 96%
    22:00 -2°C° 0.1 mm 3 mps 733 mmHg 96%
    23:00 -2°C° 0.1 mm 3 mps 733 mmHg 96%
    Show more